Location: An Tulaigh
(53.1928°N, 8.1647°W)
Time: 00:37:30
(UTC+00:00)

Helios 1A Rocket - Pass Details

Date: 15 May 2026
Orbit: 399 x 409 km, 98.3° (Epoch: 9 June)

Event Time Altitude Azimuth Distance (km) Brightness Sun altitude
Rises 21:39:46 0° 7° (N) 2,346 6.7 -9.1°
Reaches altitude 10° 21:41:55 10° 355° (N) 1,476 5.9 -9.3°
Maximum altitude 21:44:40 28° 295° (WNW) 796 4.4 -9.5°
Drops below altitude 10° 21:47:23 10° 234° (SW) 1,458 5.0 -9.8°
Sets 21:49:30 0° 222° (SW) 2,310 5.9 -10.0°
